FW4441 Weather Reports


time (UTC)temp
C
wind
direction
speed
KPH
gust
KPH
rain 1hr
cm
rain 24hr
cm
rain mn
cm
humidity
%
barometer
mb
20260901083030 13 270 0.0 0.0 0.00 0.00 0.00 63 1006.8
20260901081532 13 270 0.0 1.6 0.00 0.00 0.00 62 1006.8
20260901080029 14 265 1.6 6.4 0.00 0.00 0.00 60 1006.6
20260901071529 15 21 6.4 9.7 0.00 0.00 0.00 54 1006.3
20260901070032 15 22 6.4 9.7 0.00 0.00 0.00 53 1006.2
20260901064532 16 9 6.4 9.7 0.00 0.00 0.00 50 1006.3
20260901061530 17 155 1.6 4.8 0.00 0.00 0.00 45 1006.4
20260901060032 17 157 1.6 4.8 0.00 0.00 0.00 44 1006.4
20260901054531 17 30 0.0 4.8 0.00 0.00 0.00 43 1006.4
20260901053031 18 64 1.6 4.8 0.00 0.00 0.00 41 1006.4
20260901044530 19 170 3.2 4.8 0.00 0.00 0.00 40 1006.2
20260901043029 20 151 3.2 6.4 0.00 0.00 0.00 41 1006.1
20260901040030 19 23 3.2 6.4 0.00 0.00 0.00 42 1005.8
20260901034532 19 354 6.4 8.0 0.00 0.00 0.00 41 1005.6
20260901033033 20 4 4.8 9.7 0.00 0.00 0.00 37 1005.3
20260901031531 21 134 1.6 4.8 0.00 0.00 0.00 35 1005.2
20260901030029 22 176 3.2 6.4 0.00 0.00 0.00 33 1005.0
20260901024532 23 120 0.0 4.8 0.00 0.00 0.00 31 1004.9
20260901023030 23 112 1.6 4.8 0.00 0.00 0.00 30 1004.7
20260901021529 24 111 1.6 4.8 0.00 0.00 0.00 31 1004.7
20260901020116 24 95 1.6 6.4 0.00 0.00 0.00 32 1004.8
20260901014607 25 341 1.6 4.8 0.00 0.00 0.00 32 1004.7
20260901013029 27 273 4.8 6.4 0.00 0.00 0.00 32 1004.8
20260901011529 28 207 3.2 6.4 0.00 0.00 0.00 26 1004.8
20260901010031 28 51 3.2 11.3 0.00 0.00 0.00 23 1004.9
20260901003108 28 34 8.0 16.1 0.00 0.00 0.00 24 1005.1
20260901001528 28 39 6.4 12.9 0.00 0.00 0.00 25 1005.3
20260901000111 28 37 11.3 19.3 0.00 0.00 0.00 25 1005.4
20260831234530 29 33 11.3 19.3 0.00 0.00 0.00 25 1005.5
20260831233032 30 39 11.3 19.3 0.00 0.00 0.00 24 1005.6
20260831231534 30 43 9.7 22.5 0.00 0.00 0.00 24 1005.9
20260831224533 30 42 6.4 20.9 0.00 0.00 0.00 25 1006.4
20260831223033 30 44 8.0 20.9 0.00 0.00 0.00 25 1006.5
20260831221532 30 37 9.7 20.9 0.00 0.00 0.00 26 1006.7
20260831214605 30 31 6.4 25.7 0.00 0.00 0.00 28 1007.2
20260831213105 30 35 4.8 17.7 0.00 0.00 0.00 30 1007.4
20260831211532 29 41 6.4 14.5 0.00 0.00 0.00 31 1007.6
20260831210029 28 38 9.7 27.4 0.00 0.00 0.00 31 1007.9
20260831204530 28 40 14.5 35.4 0.00 0.00 0.00 31 1008.0
20260831203106 27 46 9.7 25.7 0.00 0.00 0.00 32 1008.3
20260831201607 27 47 12.9 25.7 0.00 0.00 0.00 32 1008.5
20260831200030 27 41 17.7 37.0 0.00 0.00 0.00 32 1008.8
20260831194606 26 49 12.9 32.2 0.00 0.00 0.00 33 1009.1
20260831191531 25 31 17.7 32.2 0.00 0.00 0.00 34 1009.6
20260831190030 25 30 17.7 40.2 0.00 0.00 0.00 36 1009.8
20260831181647 23 11 4.8 19.3 0.00 0.00 0.00 49 1010.8
20260831180043 22 282 3.2 9.7 0.00 0.00 0.00 56 1011.1
20260831173031 20 286 3.2 6.4 0.00 0.00 0.00 59 1011.5
20260831171533 20 267 1.6 4.8 0.00 0.00 0.00 60 1011.7
20260831164530 18 270 1.6 4.8 0.00 0.00 0.00 65 1012.1
20260831163030 17 305 1.6 4.8 0.00 0.00 0.00 69 1012.2
20260831161608 16 292 1.6 4.8 0.00 0.00 0.00 73 1012.5
20260831154532 15 96 0.0 1.6 0.00 0.00 0.00 77 1012.5
20260831153031 13 90 0.0 3.2 0.00 0.00 0.00 81 1012.6
20260831151530 12 90 0.0 1.6 0.00 0.00 0.00 85 1012.6
20260831150030 11 90 0.0 1.6 0.00 0.00 0.00 88 1012.5
20260831144531 8 90 0.0 3.2 0.00 0.00 0.00 89 1012.3
20260831143028 8 90 1.6 3.2 0.00 0.00 0.00 90 1012.3
20260831141532 8 90 0.0 3.2 0.00 0.00 0.00 89 1012.2
20260831140032 8 90 0.0 0.0 0.00 0.00 0.00 88 1012.1
20260831134532 8 90 0.0 3.2 0.00 0.00 0.00 88 1012.1
20260831124530 8 202 0.0 0.0 0.00 0.00 0.00 85 1012.1
20260831123031 9 170 0.0 0.0 0.00 0.00 0.00 84 1012.0
20260831121530 10 157 0.0 1.6 0.00 0.00 0.00 84 1012.0
20260831120028 10 130 1.6 4.8 0.00 0.00 0.00 83 1012.1
20260831114531 10 151 1.6 3.2 0.00 0.00 0.00 83 1012.1
20260831110031 10 180 1.6 3.2 0.00 0.00 0.00 83 1012.2
20260831104530 10 180 0.0 1.6 0.00 0.00 0.00 82 1012.3
20260831103029 10 173 1.6 4.8 0.00 0.00 0.00 80 1012.3
20260831101529 11 22 1.6 4.8 0.00 0.00 0.00 80 1012.2
20260831100028 11 22 1.6 3.2 0.00 0.00 0.00 80 1012.3
20260831094531 11 22 0.0 1.6 0.00 0.00 0.00 81 1012.5
20260831093107 11 22 0.0 1.6 0.00 0.00 0.00 79 1012.6
20260831091607 11 22 0.0 1.6 0.00 0.00 0.00 78 1012.7
20260831090033 11 13 3.2 6.4 0.00 0.00 0.00 77 1012.6
20260831084528 11 282 0.0 3.2 0.00 0.00 0.00 77 1012.8